Hourly Weather Roundup
Issued by NWS Central Illinois

Current Version | Previous Version | Text Only | Print | Product List | Glossary On
Versions: 1 2 3 4 5 6 7 8 9 10 11 12 13 14 15 16 17 18 19 20 21 22 23 24 25 26 27 28 29 30 31 32 33 34 35 36 37 38 39 40 41 42 43 44 45 46 47 48 49 50
000
NZUS43 KILX 290210
HWRILX

AREA WEATHER ROUNDUP
NATIONAL WEATHER SERVICE, LINCOLN IL
900 PM CDT SAT MAY 28 2016


CITY           SKY/WX    TMP DP  RH WIND       PRES   REMARKS
BLOOMINGTON    TSTM      66  57  72 NW13      29.99R
CHAMPAIGN      MOCLDY    75  67  76 S17G25    29.97R
DANVILLE       RAIN      74  66  75 S13       29.96R
DECATUR        MOCLDY    76  66  71 S13       29.96R
EFFINGHAM      CLOUDY    75  66  75 SE6       30.01S
FLORA          PTCLDY    75  69  80 S8        30.00S
GALESBURG      CLOUDY    71  64  78 S6        29.91
JACKSONVILLE   CLOUDY    75  64  67 SW10      29.93R
LACON          RAIN      69  60  71 SW14G23   29.90R
LAWRENCEVILLE  CLOUDY    76  67  73 S9        30.02S
LITCHFIELD     MOCLDY    74  65  71 S14       29.96R
$$


CITY           SKY/WX    TMP DP  RH WIND       PRES   REMARKS
LINCOLN        CLOUDY    78  68  71 S10G18    29.93S HX  81
MACOMB         MOCLDY    74  62  67 W7        29.93R
MATTOON        CLOUDY    74  66  76 S9        29.98R
MT CARMEL AP   PTCLDY    75  66  72 S6        30.02S
OLNEY-NOBLE AP PTCLDY    73  68  83 S7        30.01S
PARIS          CLOUDY    73  67  82 S7        30.01R
PEORIA         LGT RAIN  66  61  84 S21G30    29.92R
PONTIAC        MOCLDY    77  69  75 SW23G38   29.96R
RANTOUL        CLOUDY    76  69  76 S13       29.97S
ROBINSON       MOCLDY    71  66  84 S6        30.02S
SPRINGFIELD    MOCLDY    79  67  66 S14       29.93R HX  81
TAYLORVILLE    CLOUDY    74  66  75 S12       29.96R
$$

...REGIONAL REPORTS...


CITY           SKY/WX    TMP DP  RH WIND       PRES   REMARKS
CHICAGO O`HARE MOCLDY    77  63  61 S20G26    29.87F
KANKAKEE       MOCLDY    75  64  67 S12       29.94S
MOLINE         CLOUDY    75  58  55 W17       29.87R
MOUNT STERLING CLOUDY    71  67  88 SW5       29.92R
MOUNT VERNON   CLOUDY    75  64  69 S7        30.01S
PITTSFIELD     MOCLDY    73  67  81 S6        29.94R
QUINCY         CLOUDY    74  60  61 SW9       29.92R
ROCKFORD       CLOUDY    69  62  78 W3        29.87F THUNDER
$$


CITY           SKY/WX    TMP DP  RH WIND       PRES   REMARKS
BURLINGTON     MOCLDY    72  62  71 W5        29.90R
CEDAR RAPIDS   CLEAR     68  61  78 SW9       29.85R
DES MOINES     PTCLDY    69  57  65 SW12      29.85S
KIRKSVILLE     CLEAR     69  58  67 SW5       29.94R
OTTUMWA        CLEAR     68  60  75 SW9       29.88R
ST LOUIS       MOCLDY    79  66  64 S13G20    29.95R HX  81
$$


CITY           SKY/WX    TMP DP  RH WIND       PRES   REMARKS
TERRE HAUTE    PTCLDY    74  66  76 S8        30.01S
EVANSVILLE     MOCLDY    75  66  73 S6        30.03F
INDIANAPOLIS   CLOUDY    73  66  78 S8        30.02S
LAFAYETTE      CLEAR     73  64  73 S6        29.99R
MADISON        CLOUDY    66  64  93 CALM      29.84S
MILWAUKEE      TSTM      74  58  57 W18G30    29.91R
$$






USA.gov is the U.S. government's official web portal to all federal, state and local government web resources and services.